Weather History for Kirksville, MO

Change the Weather History Date:

Saturday, December 8, 2012

  Actual Average Record
Temperature  
Mean Temperature 38 °F 30 °F  
Max Temperature 41 °F 39 °F 67 °F (1991)
Min Temperature 35 °F 22 °F -5 °F (1927)
Degree Days  
Heating Degree Days 27 34  
Month to date heating degree days 153 265  
Since 1 July heating degree days 1423 1486  
Cooling Degree Days 0 0  
Month to date cooling degree days 0 0  
Year to date cooling degree days 1321 939  
Moisture  
Dew Point 34 °F    
Average Humidity 88    
Maximum Humidity 100    
Minimum Humidity 76    
Precipitation  
Precipitation 0.00 in 0.07 in 0.79 in (1980)
Month to date precipitation 0.07 0.53  
Year to date precipitation 26.49 38.09  
Sea Level Pressure  
Sea Level Pressure 29.99 in    
Wind  
Wind Speed 8 mph (NE)    
Max Wind Speed 16 mph    
Max Gust Speed 21 mph    
Visibility 6 miles    
Events      
T = Trace of Precipitation, MM = Missing Value Source: NWS Daily Summary

Daily Weather History Graph

Daily Weather History Graph

Search for Another Location

Airport:

Trip Planner

Search our weather history database for the weather conditions in past years. The results will help you decide how hot, cold, wet, or windy it might be!

Date:

Astronomy

Dec. 08, 2012 Rise Set
Actual Time 7:20 AM CST 4:44 PM CST
Civil Twilight 6:49 AM CST 5:14 PM CST
Nautical Twilight 6:15 AM CST 5:48 PM CST
Astronomical Twilight 5:42 AM CST 6:21 PM CST
Moon 1:45 AM CST (12/8) 1:14 PM CST (12/8)
Length of Visible Light 10h 25m
Length of Day
9h 24m
Waning Crescent, 28% of the Moon is Illuminated
Dec 8
Waning Crescent
Dec 13
New
Dec 19
First Quarter
Dec 28
Full
Jan 4
Last Quarter

Hourly Weather History & Observations

Time (CST) Temp. Windchill Dew Point Humidity Pressure Visibility Wind Dir Wind Speed Gust Speed Precip Events Conditions
12:55 AM 37.9 °F 30.5 °F 37.0 °F 97% 29.96 in 4.0 mi NNW 11.5 mph - N/A   Overcast
1:20 AM 37.4 °F 32.1 °F 37.4 °F 100% 29.92 in 2.5 mi NNW 6.9 mph - N/A   Overcast
1:55 AM 37.9 °F 33.5 °F 37.0 °F 97% 29.95 in 2.5 mi North 5.8 mph - N/A   Overcast
2:31 AM 37.4 °F 32.1 °F 37.4 °F 100% 29.93 in 1.8 mi North 6.9 mph - N/A   Overcast
2:39 AM 37.4 °F 32.8 °F 37.4 °F 100% 29.94 in 2.0 mi NNW 5.8 mph - N/A   Overcast
2:55 AM 37.9 °F 32.7 °F 37.0 °F 97% 29.97 in 3.0 mi NNW 6.9 mph - N/A   Overcast
3:18 AM 37.4 °F 32.8 °F 37.4 °F 100% 29.94 in 3.0 mi NNW 5.8 mph - N/A   Overcast
3:55 AM 37.9 °F - 37.0 °F 97% 29.97 in 4.0 mi Calm Calm - N/A   Overcast
4:55 AM 36.0 °F 33.3 °F 35.1 °F 97% 29.99 in 3.0 mi NNW 3.5 mph - N/A   Overcast
5:28 AM 37.4 °F 33.8 °F 35.6 °F 93% 29.96 in 3.0 mi North 4.6 mph - N/A   Overcast
5:55 AM 37.0 °F 31.6 °F 36.0 °F 96% 30.00 in 3.0 mi North 6.9 mph - N/A   Overcast
6:26 AM 35.6 °F 29.2 °F 35.6 °F 100% 29.98 in 5.0 mi North 8.1 mph - N/A   Overcast
6:55 AM 36.0 °F 30.3 °F 34.0 °F 93% 30.02 in 5.0 mi North 6.9 mph - N/A   Overcast
7:55 AM 35.1 °F 26.9 °F 32.0 °F 89% 30.03 in 4.0 mi North 11.5 mph - N/A   Overcast
8:55 AM 35.1 °F 28.6 °F 32.0 °F 89% 30.04 in 4.0 mi NNE 8.1 mph - N/A   Overcast
9:09 AM 35.6 °F 29.9 °F 32.0 °F 87% 30.01 in 4.0 mi NNE 6.9 mph - N/A   Overcast
9:41 AM 35.6 °F 28.6 °F 32.0 °F 87% 30.03 in 6.0 mi ENE 9.2 mph - N/A   Overcast
9:55 AM 36.0 °F 30.3 °F 32.0 °F 86% 30.06 in 6.0 mi NNE 6.9 mph - N/A   Overcast
10:55 AM 36.0 °F 32.1 °F 30.9 °F 82% 30.06 in 7.0 mi ENE 4.6 mph - N/A   Mostly Cloudy
11:10 AM 39.2 °F 33.6 °F 32.0 °F 75% 30.02 in 9.0 mi East 8.1 mph - N/A   Partly Cloudy
11:55 AM 37.9 °F 30.9 °F 30.9 °F 76% 30.03 in 10.0 mi ENE 10.4 mph - N/A   Scattered Clouds
12:55 PM 39.9 °F 35.8 °F 32.0 °F 73% 30.00 in 10.0 mi East 5.8 mph - N/A   Mostly Cloudy
1:46 PM 39.2 °F 33.6 °F 32.0 °F 75% 29.96 in 10.0 mi ENE 8.1 mph - N/A   Mostly Cloudy
1:55 PM 39.9 °F 33.9 °F 32.0 °F 73% 29.99 in 10.0 mi ENE 9.2 mph - N/A   Mostly Cloudy
2:10 PM 39.2 °F 33.6 °F 33.8 °F 81% 29.96 in 9.0 mi ENE 8.1 mph - N/A   Mostly Cloudy
2:25 PM 39.2 °F 33.6 °F 33.8 °F 81% 29.96 in 9.0 mi East 8.1 mph - N/A   Mostly Cloudy
2:55 PM 39.9 °F 34.5 °F 32.0 °F 73% 30.00 in 9.0 mi East 8.1 mph - N/A   Mostly Cloudy
3:55 PM 39.0 °F 33.4 °F 32.0 °F 76% 30.01 in 8.0 mi East 8.1 mph - N/A   Overcast
4:55 PM 39.0 °F 33.4 °F 33.1 °F 79% 30.01 in 9.0 mi ESE 8.1 mph - N/A   Overcast
5:55 PM 37.9 °F 31.5 °F 33.1 °F 83% 30.00 in 10.0 mi East 9.2 mph - N/A   Overcast
6:55 PM 37.0 °F 30.4 °F 33.1 °F 86% 30.00 in 8.0 mi East 9.2 mph - N/A   Overcast
7:55 PM 37.0 °F 31.6 °F 34.0 °F 89% 30.00 in 7.0 mi East 6.9 mph - N/A   Overcast
8:55 PM 37.9 °F 29.6 °F 34.0 °F 86% 29.98 in 8.0 mi ESE 13.8 mph - N/A   Overcast
9:55 PM 37.9 °F 29.6 °F 34.0 °F 86% 29.99 in 7.0 mi ESE 13.8 mph - N/A   Overcast
10:55 PM 37.9 °F 30.5 °F 35.1 °F 89% 29.98 in 5.0 mi ESE 11.5 mph - N/A   Overcast
11:55 PM 37.9 °F 32.1 °F 36.0 °F 93% 29.96 in 4.0 mi East 8.1 mph - N/A   Overcast